Torna al catalogo

STARLINK-36553

AttivoComunicazioniVLEO
NORAD 67506·PAYLOAD·🇺🇸 United States

Lanciato Jan 18, 2026 da Cape Canaveral Space Force Station

Loading…

Prossimi Passaggi (prossime 24 ore)

TLE

AggiornatoSource: CelesTrak SupGP

Epoca: Sep 15, 2026, 04:09 UTC

1 67506C 26012P   26258.17340278  .00035409  00000+0  12812-2 0  2584
2 67506  43.0024 323.9340 0001201 256.7011 154.5006 15.27594067    17

Traccia STARLINK-36553 in tempo reale con AllMySat

Download on the App Store